Location: Banios
(43.0451°N, 0.2335°E)
Time: 09:01:21
(UTC+00:00)

A-11 Canister half - Pass Details

Date: 17 May 2021
Orbit: 1527 x 1681 km, 47.3° (Epoch: 22 June)

Event Time Altitude Azimuth Distance (km) Brightness Sun altitude
Rises 05:36:08 0° 186° (S) 4,671 11.3 9.7°
Reaches altitude 10° 05:40:07 10° 171° (S) 3,705 11.0 10.4°
Maximum altitude 05:46:34 21° 126° (SE) 2,953 11.2 11.5°
Drops below altitude 10° 05:53:07 10° 82° (E) 3,785 13.8 12.7°
Sets 05:57:12 0° 68° (ENE) 4,801 13.5 13.4°
